Theta_e
317 320 323 325 327 333 332 334 334 338 337 335 336 338 337 335 335 338 341 344 343 340 340 329 326 323 324 330 335 336 337 337 333 330 328 329 330 330 331 329 328 324 322 324 326 329 332 333 335
319 321 323 328 333 334 336 336 337 338 337 337 336 336 336 338 337 338 341 345 346 342 340 337 327 324 323 327 331 333 336 334 329 327 327 328 328 328 329 329 327 323 322 327 330 330 333 335 335
320 319 328 332 334 335 337 336 338 338 337 337 337 337 338 343 340 339 341 346 344 342 339 340 328 326 323 323 323 324 325 325 325 326 327 327 329 330 330 328 325 323 322 331 335 328 330 333 334
322 324 325 332 333 331 332 332 337 339 338 338 337 338 338 346 343 343 343 346 344 342 340 339 329 328 325 323 322 321 321 323 325 326 328 329 330 329 328 326 324 323 325 328 325 325 326 327 329
324 327 331 331 331 329 329 329 330 337 339 339 338 338 343 347 346 344 344 345 344 342 341 334 329 329 327 325 323 321 320 322 323 325 326 326 326 326 324 323 323 323 326 324 323 323 324 324 325
328 328 332 332 331 329 329 328 331 331 335 338 339 338 343 348 347 345 345 345 344 344 343 339 330 330 329 328 325 322 321 321 322 323 323 323 322 321 321 321 321 322 322 323 323 323 323 323 324
330 332 332 331 330 330 329 328 331 333 333 334 336 337 345 346 348 348 346 348 346 346 345 342 338 331 330 330 328 325 322 321 321 322 322 322 321 321 321 321 321 321 321 321 322 321 322 322 322
329 331 331 329 331 331 329 328 327 330 334 335 336 336 339 345 347 346 347 348 348 347 346 345 342 339 338 335 330 328 325 323 322 322 322 322 322 322 322 322 321 322 322 322 322 322 322 323 322
325 330 331 330 330 330 329 329 327 330 335 336 338 338 341 346 346 345 347 348 347 347 346 346 344 342 341 340 338 330 328 325 324 324 324 323 331 330 329 327 329 323 323 323 323 323 322 321 319
327 330 330 328 328 329 328 328 328 328 332 334 336 339 343 346 345 344 345 347 347 346 345 345 345 345 343 342 341 338 337 334 333 334 333 332 333 333 333 332 326 325 324 324 324 323 322 320 324
327 327 327 327 327 328 328 328 328 328 329 329 329 331 344 345 346 344 342 341 345 345 344 344 346 345 345 343 342 341 340 338 337 336 337 335 335 334 333 334 331 331 328 330 328 328 326 326 327
326 326 327 326 326 327 328 328 328 329 329 328 328 332 342 345 346 345 343 340 341 343 344 344 344 345 345 343 342 342 341 341 339 338 338 337 337 336 334 334 334 334 333 332 334 333 331 331 330
327 327 326 326 326 326 326 326 327 328 328 328 328 328 337 341 342 343 343 341 339 341 342 343 344 344 344 345 343 342 342 341 340 339 338 337 337 336 336 335 335 335 334 334 335 335 334 332 330
326 325 325 325 326 327 327 326 326 327 327 328 328 329 331 335 338 339 343 343 339 339 340 342 343 344 343 342 343 343 343 342 341 339 338 338 337 337 336 336 336 336 335 335 335 337 336 333 331
325 326 325 328 328 327 327 328 327 327 327 328 328 329 330 331 333 336 339 344 342 340 339 341 342 343 342 342 342 343 342 342 341 340 339 339 338 337 337 337 337 336 336 336 335 337 337 334 332
327 327 327 328 329 327 327 328 330 330 330 330 330 330 330 331 332 333 337 341 343 341 340 341 341 341 343 342 342 342 342 342 341 340 339 339 339 338 338 337 337 337 337 337 337 337 338 336 335
328 325 328 330 328 329 329 331 330 330 330 330 331 331 331 330 330 331 336 340 341 342 341 342 341 340 342 342 341 342 341 341 340 339 339 339 339 338 338 337 337 338 338 338 337 337 338 338 337
323 326 326 327 329 328 329 330 330 329 329 330 330 331 331 331 330 330 334 336 340 341 342 343 343 342 341 341 341 341 341 340 340 339 339 339 338 338 338 337 337 338 338 338 338 338 338 338 338
326 327 327 326 327 327 330 330 329 328 328 329 329 329 329 330 329 329 332 335 338 341 343 344 344 344 344 342 341 341 340 340 340 339 339 339 338 338 338 338 337 338 338 338 338 338 338 339 338
327 327 327 325 327 328 329 328 329 327 328 328 328 329 329 330 329 328 326 327 333 338 341 344 345 346 345 344 342 341 340 341 341 341 340 340 339 338 338 338 338 338 338 338 338 339 339 339 339
327 328 326 324 323 323 324 327 327 328 328 327 328 328 328 329 330 330 329 327 327 327 335 341 343 345 346 345 344 343 342 343 342 343 342 341 340 339 339 338 339 338 339 339 339 340 340 340 340
326 325 324 323 323 322 328 324 327 326 328 327 329 330 331 331 333 334 335 331 325 324 325 330 338 341 345 346 345 344 344 343 343 343 343 343 343 341 340 340 339 340 340 340 338 338 339 340 340
324 324 323 324 325 327 326 329 326 326 328 328 328 330 331 331 333 335 337 333 331 327 325 332 336 340 343 345 345 345 346 345 344 344 345 345 344 343 341 339 338 339 339 339 339 338 338 338 338
324 325 326 328 330 332 326 328 323 325 326 328 327 329 330 331 331 331 332 335 335 337 335 329 334 338 342 345 346 345 346 346 345 345 346 346 345 344 341 339 339 339 340 339 339 338 338 338 337
326 327 327 329 331 329 327 328 327 325 327 328 326 329 330 330 330 329 330 331 332 335 338 339 339 338 340 343 344 345 345 346 346 346 345 345 344 343 343 340 340 339 339 340 340 338 338 338 336
325 326 325 324 323 324 327 328 325 326 327 327 327 328 329 328 325 325 325 326 326 327 331 336 339 340 342 343 344 345 345 345 345 345 345 344 344 345 345 342 339 339 339 339 338 338 337 336 335
325 326 325 325 325 327 325 325 326 327 326 327 327 328 328 325 324 325 326 326 326 328 328 329 330 331 335 338 341 342 344 345 344 344 345 345 345 344 345 344 342 338 339 339 338 338 337 336 335
324 323 325 325 326 326 324 324 325 324 326 327 328 328 329 324 324 326 326 326 326 326 326 327 326 326 326 328 332 337 339 342 343 343 344 345 344 344 344 342 341 340 339 339 338 337 336 334 333
324 325 324 324 324 324 324 323 325 326 326 328 328 327 324 324 325 326 326 326 327 327 326 326 326 325 325 326 327 330 335 338 340 342 342 342 342 341 342 340 340 338 338 337 336 336 335 334 332
322 324 325 324 325 324 325 328 326 328 327 328 327 323 322 325 326 326 327 326 325 325 325 325 325 325 325 325 327 330 332 334 338 340 341 340 340 339 339 339 339 339 337 336 335 334 334 332 329
Wind_Speed
2 5 5 7 6 5 7 8 2 5 4 2 2 3 6 7 6 4 3 9 21 27 26 28 26 24 23 23 25 26 25 23 21 20 20 19 18 16 14 13 13 11 12 13 13 13 13 13 13
2 6 7 3 5 6 8 4 2 3 4 3 5 4 5 4 3 5 7 10 21 28 26 25 27 25 24 24 25 25 24 21 20 19 19 18 17 16 14 13 12 11 11 12 12 12 12 11 11
2 3 5 3 2 7 9 5 4 4 4 5 3 3 3 3 3 2 3 16 25 26 25 24 28 26 24 24 23 22 21 21 20 19 18 18 17 16 14 12 12 12 11 12 11 11 11 10 9
4 6 5 6 9 8 5 4 3 6 5 4 2 3 3 3 2 2 12 21 25 26 24 24 28 26 25 24 22 21 20 20 19 18 17 16 15 14 13 12 11 11 11 11 11 10 10 9 8
5 4 4 5 7 6 3 7 3 5 3 2 2 4 2 3 5 9 18 21 26 25 24 26 28 25 24 23 21 20 20 20 19 18 17 16 15 14 13 12 12 11 10 10 10 10 10 8 7
5 3 5 6 6 3 2 7 4 6 7 4 4 4 2 5 8 12 17 17 21 24 23 24 29 27 25 23 22 21 20 20 20 19 17 16 15 14 14 13 12 11 11 10 10 10 9 9 7
5 6 4 4 4 4 7 8 2 3 6 8 2 6 4 7 8 13 16 14 18 21 21 22 24 27 26 24 23 22 21 20 19 18 17 16 15 14 14 13 12 12 11 11 10 10 9 9 8
4 5 7 4 3 4 8 8 3 6 2 4 4 2 4 8 12 14 15 15 18 20 21 22 22 23 23 24 25 24 22 21 20 19 17 16 15 14 14 13 13 13 12 11 10 10 10 9 8
3 5 6 5 3 3 7 8 4 3 5 4 5 5 5 14 17 15 15 15 19 20 21 23 24 23 23 21 22 25 23 22 21 20 19 17 14 14 14 14 14 13 12 11 11 10 10 10 9
5 5 3 2 3 3 5 6 7 4 4 8 6 4 6 15 18 19 18 18 22 23 24 25 25 24 23 22 21 23 20 19 19 18 19 17 15 15 15 15 15 14 13 13 12 12 12 11 9
1 7 1 5 7 9 9 8 4 7 8 3 5 5 12 15 17 18 20 21 24 24 23 26 27 27 26 24 22 22 21 20 20 19 18 18 16 16 16 14 14 13 14 12 13 12 11 12 11
8 6 9 8 10 9 11 12 12 11 12 5 4 2 11 16 16 20 20 21 22 25 26 27 27 26 26 25 25 23 22 21 21 21 21 19 18 17 16 15 14 15 14 15 15 13 13 13 13
10 9 8 10 11 14 16 18 17 15 14 12 9 7 11 14 18 21 20 21 22 25 26 28 27 27 26 25 23 24 23 23 21 20 21 21 19 18 18 17 16 16 16 16 15 15 14 14 14
4 10 14 14 15 18 16 17 6 13 15 13 14 15 14 15 18 19 21 25 27 27 28 28 28 28 26 26 26 23 23 23 23 23 23 24 22 20 19 18 17 17 17 16 16 15 14 15 15
8 13 13 9 3 4 6 14 13 15 7 11 12 15 16 13 19 20 26 27 29 28 25 28 29 28 28 27 26 25 23 22 23 23 23 24 25 22 20 19 18 18 18 17 17 16 16 15 15
9 9 8 7 4 2 4 10 2 10 9 14 14 13 15 19 20 25 25 25 25 25 26 26 27 28 28 28 26 27 25 24 24 24 24 25 25 25 22 22 21 20 19 19 19 19 19 18 18
8 10 6 6 2 2 2 13 13 14 13 16 17 16 15 16 18 25 27 22 23 26 26 28 29 31 31 29 27 26 25 26 25 25 26 26 27 27 26 24 23 21 22 22 21 21 21 21 21
6 9 8 9 2 8 15 16 15 18 19 16 17 18 17 16 18 18 22 23 21 22 25 27 29 31 30 27 26 25 26 27 26 27 27 27 27 27 28 26 25 23 24 24 24 24 23 24 24
10 13 14 12 13 13 11 15 17 16 14 15 14 15 15 13 11 12 14 17 19 22 24 28 28 29 29 30 29 29 31 27 27 28 28 27 27 27 28 27 25 26 27 26 25 25 25 26 23
13 14 17 13 5 5 13 19 19 7 5 4 7 8 9 8 7 4 8 14 20 23 27 27 30 28 29 28 27 27 24 26 26 26 26 29 29 29 29 29 28 27 27 28 28 27 25 26 23
16 17 16 15 11 16 16 18 8 4 3 1 3 3 2 3 5 5 5 10 15 21 24 25 26 27 27 27 24 24 24 20 23 27 27 28 28 29 30 30 29 28 29 29 29 28 28 27 26
17 12 14 14 8 7 3 6 8 5 5 3 1 3 4 4 6 7 7 6 6 13 15 20 22 22 23 24 25 26 26 27 26 24 24 25 27 28 29 29 29 29 27 29 29 30 31 28 25
14 5 9 10 12 10 15 7 8 6 10 7 5 5 5 5 5 7 9 10 9 4 3 8 13 16 19 21 24 24 27 27 24 24 23 23 24 27 30 30 31 32 30 30 29 28 30 31 29
3 8 6 7 9 11 17 13 10 12 14 9 8 5 5 4 4 6 7 9 11 9 6 2 7 11 14 18 21 25 26 24 24 24 24 23 24 27 31 33 35 33 33 35 35 33 32 32 32
15 11 5 8 8 11 1 10 14 4 6 12 9 7 6 5 6 8 9 10 12 11 9 5 1 4 9 14 18 21 24 25 26 25 25 24 24 25 26 31 30 33 35 36 34 32 32 33 31
20 17 10 11 12 12 5 8 6 13 12 9 6 7 9 8 5 7 7 9 10 10 9 7 4 4 7 10 15 18 21 23 24 24 24 24 23 23 21 25 28 31 31 32 31 30 31 30 31
14 17 25 19 19 10 13 15 12 12 9 13 11 9 11 7 6 7 8 10 11 13 12 11 10 10 10 12 14 17 20 23 24 22 22 23 23 21 20 21 23 25 25 26 26 28 30 31 31
28 10 10 12 14 18 13 18 13 15 17 19 16 11 9 6 6 7 8 11 13 14 16 17 15 15 14 15 16 18 20 22 23 22 23 22 21 19 20 19 21 22 23 23 23 26 27 28 31
14 19 13 12 14 14 16 14 11 18 15 20 16 12 8 6 6 5 6 8 11 13 15 17 17 18 17 16 16 17 19 20 21 23 23 21 21 19 19 18 19 21 24 25 25 27 28 29 31
23 27 28 12 18 9 14 17 2 9 13 10 16 12 7 6 6 6 6 8 12 13 15 17 19 19 19 18 17 16 16 17 19 20 21 19 18 17 19 20 21 22 23 21 23 25 29 29 30
Wind_Direction
272 295 280 233 226 239 104 94 36 112 137 62 184 242 330 342 341 358 122 174 172 166 166 166 166 165 164 164 167 165 167 167 164 160 156 154 151 151 148 145 145 146 142 139 136 134 130 129 122
267 292 242 252 240 160 101 96 118 58 44 153 167 223 258 6 5 108 147 168 167 165 165 166 168 167 165 166 164 164 167 167 167 164 161 159 157 156 155 155 154 151 148 144 142 141 141 141 139
238 275 266 257 218 104 95 74 63 102 146 179 228 248 315 26 72 40 115 158 161 165 164 170 170 170 169 170 168 167 169 169 169 169 166 164 163 162 164 165 162 159 155 152 152 155 154 156 156
254 202 215 241 112 82 55 42 83 150 175 228 312 270 187 50 26 38 155 155 162 165 168 177 175 175 174 174 171 171 171 172 173 172 171 169 169 170 172 173 171 168 164 164 166 169 171 172 174
240 231 205 141 99 98 59 14 305 222 196 161 235 41 319 108 110 123 149 160 167 169 171 178 179 181 180 178 177 177 176 178 178 178 178 178 178 179 178 179 178 176 176 179 178 179 182 186 190
229 267 203 152 106 58 31 357 314 235 247 201 253 297 28 138 147 147 155 162 173 173 173 175 182 186 188 185 187 186 184 184 185 185 185 184 185 183 185 185 185 187 190 190 189 189 192 197 202
293 255 105 134 97 128 20 351 284 308 254 227 212 275 82 178 156 161 172 168 177 178 177 179 184 192 195 194 194 194 192 191 191 190 190 189 189 188 191 191 194 197 197 198 198 200 204 206 210
288 279 176 156 116 90 16 346 332 249 49 92 213 269 100 141 155 154 164 172 178 184 184 185 189 193 196 200 202 201 198 197 195 195 194 193 192 195 198 199 202 206 205 207 206 206 213 218 220
280 240 194 162 222 32 15 351 76 303 245 203 184 262 95 145 156 162 167 174 181 187 194 193 193 197 200 204 208 206 205 203 200 199 197 196 190 201 209 206 217 212 211 214 218 218 220 224 228
266 258 184 58 334 292 316 330 345 283 190 210 216 171 172 163 174 179 187 186 192 194 196 198 200 201 202 205 207 206 207 204 203 201 200 193 197 201 204 211 215 218 217 220 226 229 229 228 233
203 273 351 270 283 298 297 293 299 279 245 248 264 265 187 191 197 200 202 202 202 201 202 204 203 202 203 207 207 208 209 208 209 208 204 202 204 205 204 208 210 215 224 228 232 232 234 234 235
265 256 276 296 301 268 279 308 281 269 276 312 310 276 192 204 207 213 211 209 203 205 207 206 207 207 208 207 209 210 211 210 210 211 207 205 207 209 208 210 211 212 217 221 225 227 228 232 234
254 286 288 281 269 269 284 274 276 271 265 274 268 243 219 222 225 221 221 216 210 208 208 209 207 206 208 211 214 213 214 214 214 213 213 210 215 216 213 214 214 218 219 224 228 231 232 235 234
339 291 285 281 278 274 263 269 265 259 262 259 248 247 236 231 236 230 221 217 214 212 209 206 208 209 208 210 212 216 217 218 216 216 215 213 216 220 220 219 221 223 226 228 231 236 239 238 237
288 284 284 261 275 241 288 251 230 259 275 274 250 242 245 247 249 236 228 222 218 215 211 208 206 208 210 213 215 218 220 220 221 222 221 218 217 220 221 225 227 228 229 231 234 235 239 242 240
276 278 278 140 297 141 236 276 322 257 263 259 261 252 253 254 256 242 235 229 224 220 214 211 208 209 212 215 215 217 221 222 223 223 224 223 221 221 223 226 229 229 229 230 231 234 238 240 242
196 281 272 295 267 255 278 299 287 295 258 262 269 266 261 255 259 245 231 233 229 224 216 215 211 211 211 214 217 220 220 222 224 227 227 226 223 223 223 228 230 228 231 233 235 235 239 242 241
299 273 259 275 171 282 291 274 276 277 268 256 265 273 267 261 264 249 228 229 230 227 220 219 216 216 213 213 215 222 225 226 226 228 229 228 227 224 224 229 231 228 232 235 236 239 239 241 244
275 274 277 283 288 294 271 285 290 288 279 266 257 263 264 251 276 256 238 235 233 229 222 219 219 219 211 211 212 216 222 225 229 230 231 230 229 228 226 230 232 232 235 236 235 237 238 242 236
241 261 273 284 279 261 287 297 292 294 273 259 279 272 266 266 272 265 247 244 239 235 227 223 223 220 220 219 221 225 229 233 235 234 233 230 229 226 226 227 229 231 234 234 233 231 233 241 234
239 247 264 270 297 276 281 278 221 192 233 250 235 268 277 325 330 341 292 264 257 246 237 227 225 224 223 226 227 228 231 239 234 233 234 234 231 229 227 228 229 230 231 234 231 229 230 240 239
244 237 251 270 267 264 234 279 243 229 199 202 113 113 92 71 55 38 22 6 292 257 243 236 228 225 223 221 227 226 229 235 238 240 240 238 235 232 231 230 230 231 232 232 230 228 226 232 244
233 223 240 256 258 273 236 249 263 211 213 177 114 104 100 71 56 43 34 29 25 9 235 222 217 217 218 217 221 228 236 243 248 248 246 242 238 234 230 226 229 230 229 233 235 233 230 231 236
286 211 226 236 249 242 251 229 241 234 224 183 143 125 123 92 81 64 58 59 58 55 62 160 207 215 220 222 225 230 238 241 247 246 245 244 243 236 232 230 233 239 229 236 238 236 233 230 231
205 200 232 228 214 253 344 235 241 266 212 183 152 134 131 109 84 70 55 46 43 47 52 63 131 229 228 229 233 237 242 245 247 246 245 245 243 236 235 232 227 229 233 236 235 235 236 235 234
207 207 231 249 249 259 150 235 234 243 213 201 162 141 142 125 100 70 52 44 32 29 25 14 351 299 262 251 249 248 249 248 250 252 248 247 246 245 241 235 233 232 232 233 235 234 238 239 238
206 223 236 264 265 269 261 246 267 241 209 194 181 168 157 135 97 63 46 33 27 16 16 2 341 317 301 286 273 264 260 254 253 254 254 254 252 251 247 239 234 238 236 235 235 237 237 238 235
228 251 215 216 243 239 245 248 248 226 215 196 184 185 177 140 90 54 35 20 12 7 357 353 346 332 321 305 285 274 267 262 260 258 257 257 256 253 251 247 238 233 235 237 237 239 242 237 241
208 226 228 236 231 244 257 264 219 243 232 199 182 173 166 126 102 79 47 30 27 18 11 2 354 339 330 321 306 292 281 271 264 259 258 251 252 249 251 249 244 238 233 233 232 236 238 243 241
218 214 212 220 213 232 258 263 171 241 246 205 174 154 150 128 95 66 58 54 43 37 29 22 13 6 351 338 328 320 312 296 280 270 270 265 259 256 253 252 250 246 241 225 226 235 245 242 239